Year,Month,Day,Hour,Minute,Value (Times are PST for windspeed in km/hr)
2017,05,16,00,00,9.10
2017,05,16,00,01,5.80
2017,05,16,00,02,4.20
2017,05,16,00,03,8.70
2017,05,16,00,04,9.20
2017,05,16,00,05,6.70
2017,05,16,00,06,9.40
2017,05,16,00,07,9.40
2017,05,16,00,08,6.90
2017,05,16,00,09,6.10
2017,05,16,00,10,5.90
2017,05,16,00,11,1.90
2017,05,16,00,12,3.90
2017,05,16,00,13,7.40
2017,05,16,00,14,5.40
2017,05,16,00,15,3.00
2017,05,16,00,16,3.70
2017,05,16,00,17,4.90
2017,05,16,00,18,5.80
2017,05,16,00,19,6.90
2017,05,16,00,20,12.70
2017,05,16,00,21,9.40
2017,05,16,00,22,2.90
2017,05,16,00,23,8.80
2017,05,16,00,24,10.00
2017,05,16,00,25,9.50
2017,05,16,00,26,14.30
2017,05,16,00,27,12.80
2017,05,16,00,28,7.80
2017,05,16,00,29,5.40
2017,05,16,00,30,10.40
2017,05,16,00,31,8.80
2017,05,16,00,32,10.20
2017,05,16,00,33,13.50
2017,05,16,00,34,11.30
2017,05,16,00,35,7.10
2017,05,16,00,36,7.30
2017,05,16,00,37,4.80
2017,05,16,00,38,9.00
2017,05,16,00,39,4.90
2017,05,16,00,40,6.50
2017,05,16,00,41,12.80
2017,05,16,00,42,6.70
2017,05,16,00,43,9.50
2017,05,16,00,44,5.50
2017,05,16,00,45,8.20
2017,05,16,00,46,6.30
2017,05,16,00,47,10.30
2017,05,16,00,48,9.80
2017,05,16,00,49,10.90
2017,05,16,00,50,11.40
2017,05,16,00,51,9.50
2017,05,16,00,52,5.10
2017,05,16,00,53,8.20
2017,05,16,00,54,9.60
2017,05,16,00,55,9.70
2017,05,16,00,56,12.60
2017,05,16,00,57,11.70
2017,05,16,00,58,10.00
2017,05,16,00,59,9.30
2017,05,16,01,00,6.30
2017,05,16,01,01,3.70
2017,05,16,01,02,1.10
2017,05,16,01,03,8.80
2017,05,16,01,04,5.00
2017,05,16,01,05,4.50
2017,05,16,01,06,7.70
2017,05,16,01,07,4.50
2017,05,16,01,08,3.90
2017,05,16,01,09,0.80
2017,05,16,01,10,2.30
2017,05,16,01,11,4.30
2017,05,16,01,12,8.40
2017,05,16,01,13,4.80
2017,05,16,01,14,0.10
2017,05,16,01,15,1.10
2017,05,16,01,16,1.60
2017,05,16,01,17,0.40
2017,05,16,01,18,0.50
2017,05,16,01,19,0.00
2017,05,16,01,20,0.10
2017,05,16,01,21,0.00
2017,05,16,01,22,0.00
2017,05,16,01,23,0.00
2017,05,16,01,24,2.30
2017,05,16,01,25,2.10
2017,05,16,01,26,0.70
2017,05,16,01,27,6.40
2017,05,16,01,28,2.40
2017,05,16,01,29,0.20
2017,05,16,01,30,0.10
2017,05,16,01,31,0.00
2017,05,16,01,32,0.70
2017,05,16,01,33,0.00
2017,05,16,01,34,1.70
2017,05,16,01,35,0.90
2017,05,16,01,36,4.10
2017,05,16,01,37,2.90
2017,05,16,01,38,1.00
2017,05,16,01,39,2.70
2017,05,16,01,40,3.90
2017,05,16,01,41,1.20
2017,05,16,01,42,2.40
2017,05,16,01,43,1.40
2017,05,16,01,44,0.90
2017,05,16,01,45,2.30
2017,05,16,01,46,1.70
2017,05,16,01,47,1.00
2017,05,16,01,48,0.00
2017,05,16,01,49,0.50
2017,05,16,01,50,0.00
2017,05,16,01,51,0.00
2017,05,16,01,52,0.00
2017,05,16,01,53,0.00
2017,05,16,01,54,0.00
2017,05,16,01,55,0.00
2017,05,16,01,56,0.00
2017,05,16,01,57,0.00
2017,05,16,01,58,0.00
2017,05,16,01,59,0.40
2017,05,16,02,00,0.80
2017,05,16,02,01,1.40
2017,05,16,02,02,0.80
2017,05,16,02,03,0.90
2017,05,16,02,04,0.00
2017,05,16,02,05,1.20
2017,05,16,02,06,0.10
2017,05,16,02,07,0.00
2017,05,16,02,08,0.10
2017,05,16,02,09,0.00
2017,05,16,02,10,0.00
2017,05,16,02,11,0.00
2017,05,16,02,12,0.00
2017,05,16,02,13,0.00
2017,05,16,02,14,0.00
2017,05,16,02,15,0.00
2017,05,16,02,16,0.00
2017,05,16,02,17,0.00
2017,05,16,02,18,0.00
2017,05,16,02,19,0.00
2017,05,16,02,20,0.00
2017,05,16,02,21,0.00
2017,05,16,02,22,0.00
2017,05,16,02,23,0.00
2017,05,16,02,24,0.80
2017,05,16,02,25,0.30
2017,05,16,02,26,0.00
2017,05,16,02,27,0.00
2017,05,16,02,28,0.00
2017,05,16,02,29,0.00
2017,05,16,02,30,0.00
2017,05,16,02,31,0.00
2017,05,16,02,32,0.00
2017,05,16,02,33,0.00
2017,05,16,02,34,0.00
2017,05,16,02,35,0.00
2017,05,16,02,36,0.00
2017,05,16,02,37,0.00
2017,05,16,02,38,0.00
2017,05,16,02,39,0.00
2017,05,16,02,40,0.00
2017,05,16,02,41,0.00
2017,05,16,02,42,0.10
2017,05,16,02,43,0.00
2017,05,16,02,44,0.00
2017,05,16,02,45,0.00
2017,05,16,02,46,0.00
2017,05,16,02,47,0.00
2017,05,16,02,48,0.00
2017,05,16,02,49,0.00
2017,05,16,02,50,0.00
2017,05,16,02,51,0.00
2017,05,16,02,52,0.00
2017,05,16,02,53,0.00
2017,05,16,02,54,0.00
2017,05,16,02,55,3.30
2017,05,16,02,56,5.20
2017,05,16,02,57,4.90
2017,05,16,02,58,5.00
2017,05,16,02,59,3.90
2017,05,16,03,00,5.00
2017,05,16,03,01,5.40
2017,05,16,03,02,3.60
2017,05,16,03,03,4.60
2017,05,16,03,04,3.90
2017,05,16,03,05,3.80
2017,05,16,03,06,5.90
2017,05,16,03,07,5.70
2017,05,16,03,08,4.40
2017,05,16,03,09,3.90
2017,05,16,03,10,7.00
2017,05,16,03,11,3.50
2017,05,16,03,12,3.00
2017,05,16,03,13,5.50
2017,05,16,03,14,2.80
2017,05,16,03,15,2.00
2017,05,16,03,16,5.20
2017,05,16,03,17,4.80
2017,05,16,03,18,3.60
2017,05,16,03,19,3.80
2017,05,16,03,20,4.00
2017,05,16,03,21,6.10
2017,05,16,03,22,5.70
2017,05,16,03,23,2.10
2017,05,16,03,24,4.00
2017,05,16,03,25,5.30
2017,05,16,03,26,1.80
2017,05,16,03,27,2.90
2017,05,16,03,28,3.90
2017,05,16,03,29,3.40
2017,05,16,03,30,3.00
2017,05,16,03,31,2.70
2017,05,16,03,32,3.70
2017,05,16,03,33,4.00
2017,05,16,03,34,3.70
2017,05,16,03,35,5.10
2017,05,16,03,36,3.40
2017,05,16,03,37,2.90
2017,05,16,03,38,3.00
2017,05,16,03,39,3.20
2017,05,16,03,40,5.00
2017,05,16,03,41,4.90
2017,05,16,03,42,1.30
2017,05,16,03,43,2.40
2017,05,16,03,44,4.00
2017,05,16,03,45,3.80
2017,05,16,03,46,3.00
2017,05,16,03,47,3.50
2017,05,16,03,48,3.60
2017,05,16,03,49,2.90
2017,05,16,03,50,4.30
2017,05,16,03,51,2.50
2017,05,16,03,52,4.00
2017,05,16,03,53,3.00
2017,05,16,03,54,3.30
2017,05,16,03,55,2.00
2017,05,16,03,56,3.90
2017,05,16,03,57,5.20
2017,05,16,03,58,4.20
2017,05,16,03,59,2.90
2017,05,16,04,00,4.10
2017,05,16,04,01,2.70
2017,05,16,04,02,2.90
2017,05,16,04,03,2.80
2017,05,16,04,04,1.70
2017,05,16,04,05,1.50
2017,05,16,04,06,1.90
2017,05,16,04,07,2.40
2017,05,16,04,08,3.40
2017,05,16,04,09,2.90
2017,05,16,04,10,2.20
2017,05,16,04,11,2.90
2017,05,16,04,12,5.10
2017,05,16,04,13,3.90
2017,05,16,04,14,3.20
2017,05,16,04,15,2.20
2017,05,16,04,16,2.10
2017,05,16,04,17,3.50
2017,05,16,04,18,4.30
2017,05,16,04,19,3.10
2017,05,16,04,20,2.10
2017,05,16,04,21,2.40
2017,05,16,04,22,6.00
2017,05,16,04,23,5.80
2017,05,16,04,24,2.00
2017,05,16,04,25,4.20
2017,05,16,04,26,2.40
2017,05,16,04,27,2.20
2017,05,16,04,28,0.40
2017,05,16,04,29,4.60
2017,05,16,04,30,3.30
2017,05,16,04,31,1.60
2017,05,16,04,32,2.70
2017,05,16,04,33,2.30
2017,05,16,04,34,1.10
2017,05,16,04,35,1.30
2017,05,16,04,36,2.70
2017,05,16,04,37,2.80
2017,05,16,04,38,3.80
2017,05,16,04,39,1.70
2017,05,16,04,40,2.70
2017,05,16,04,41,1.70
2017,05,16,04,42,1.90
2017,05,16,04,43,2.90
2017,05,16,04,44,2.60
2017,05,16,04,45,1.40
2017,05,16,04,46,1.70
2017,05,16,04,47,1.40
2017,05,16,04,48,2.40
2017,05,16,04,49,1.90
2017,05,16,04,50,4.20
2017,05,16,04,51,3.40
2017,05,16,04,52,2.70
2017,05,16,04,53,2.40
2017,05,16,04,54,2.80
2017,05,16,04,55,4.30
2017,05,16,04,56,2.70
2017,05,16,04,57,0.20
2017,05,16,04,58,0.90
2017,05,16,04,59,3.10
2017,05,16,05,00,2.00
2017,05,16,05,01,2.60
2017,05,16,05,02,1.80
2017,05,16,05,03,0.90
2017,05,16,05,04,1.70
2017,05,16,05,05,1.70
2017,05,16,05,06,1.60
2017,05,16,05,07,0.20
2017,05,16,05,08,2.80
2017,05,16,05,09,1.10
2017,05,16,05,10,1.80
2017,05,16,05,11,3.20
2017,05,16,05,12,3.30
2017,05,16,05,13,1.80
2017,05,16,05,14,3.30
2017,05,16,05,15,2.60
2017,05,16,05,16,3.30
2017,05,16,05,17,2.40
2017,05,16,05,18,2.30
2017,05,16,05,19,3.30
2017,05,16,05,20,2.00
2017,05,16,05,21,2.70
2017,05,16,05,22,5.50
2017,05,16,05,23,3.40
2017,05,16,05,24,2.70
2017,05,16,05,25,2.60
2017,05,16,05,26,2.90
2017,05,16,05,27,2.50
2017,05,16,05,28,2.50
2017,05,16,05,29,2.60
2017,05,16,05,30,2.10
2017,05,16,05,31,3.20
2017,05,16,05,32,6.50
2017,05,16,05,33,4.20
2017,05,16,05,34,3.60
2017,05,16,05,35,1.10
2017,05,16,05,36,3.60
2017,05,16,05,37,3.50
2017,05,16,05,38,3.80
2017,05,16,05,39,1.70
2017,05,16,05,40,1.40
2017,05,16,05,41,3.10
2017,05,16,05,42,2.10
2017,05,16,05,43,2.10
2017,05,16,05,44,1.80
2017,05,16,05,45,2.70
2017,05,16,05,46,2.70
2017,05,16,05,47,2.20
2017,05,16,05,48,1.90
2017,05,16,05,49,1.10
2017,05,16,05,50,2.40
2017,05,16,05,51,2.00
2017,05,16,05,52,1.50
2017,05,16,05,53,0.20
2017,05,16,05,54,0.70
2017,05,16,05,55,1.00
2017,05,16,05,56,1.10
2017,05,16,05,57,2.50
2017,05,16,05,58,1.80
2017,05,16,05,59,0.00
2017,05,16,06,00,1.40
2017,05,16,06,01,3.60
2017,05,16,06,02,2.30
2017,05,16,06,03,2.20
2017,05,16,06,04,3.20
2017,05,16,06,05,1.50
2017,05,16,06,06,2.40
2017,05,16,06,07,1.60
2017,05,16,06,08,1.60
2017,05,16,06,09,2.00
2017,05,16,06,10,3.80
2017,05,16,06,11,3.70
2017,05,16,06,12,0.90
2017,05,16,06,13,1.80
2017,05,16,06,14,1.00
2017,05,16,06,15,1.90
2017,05,16,06,16,2.20
2017,05,16,06,17,1.10
2017,05,16,06,18,1.90
2017,05,16,06,19,1.70
2017,05,16,06,20,2.00
2017,05,16,06,21,1.90
2017,05,16,06,22,1.60
2017,05,16,06,23,0.10
2017,05,16,06,24,0.00
2017,05,16,06,25,0.90
2017,05,16,06,26,0.40
2017,05,16,06,27,0.70
2017,05,16,06,28,1.30
2017,05,16,06,29,2.80
2017,05,16,06,30,0.20
2017,05,16,06,31,0.20
2017,05,16,06,32,1.10
2017,05,16,06,33,0.10
2017,05,16,06,34,0.00
2017,05,16,06,35,0.40
2017,05,16,06,36,0.70
2017,05,16,06,37,1.30
2017,05,16,06,38,0.40
2017,05,16,06,39,0.10
2017,05,16,06,40,0.60
2017,05,16,06,41,0.50
2017,05,16,06,42,0.80
2017,05,16,06,43,1.30
2017,05,16,06,44,2.80
2017,05,16,06,45,2.70
2017,05,16,06,46,2.50
2017,05,16,06,47,1.30
2017,05,16,06,48,1.90
2017,05,16,06,49,1.30
2017,05,16,06,50,0.20
2017,05,16,06,51,0.10
2017,05,16,06,52,0.20
2017,05,16,06,53,0.00
2017,05,16,06,54,0.00
2017,05,16,06,55,0.00
2017,05,16,06,56,0.00
2017,05,16,06,57,0.10
2017,05,16,06,58,0.10
2017,05,16,06,59,0.00
2017,05,16,07,00,0.00
2017,05,16,07,01,0.00
2017,05,16,07,02,0.00
2017,05,16,07,03,0.00
2017,05,16,07,04,0.30
2017,05,16,07,05,1.60
2017,05,16,07,06,0.60
2017,05,16,07,07,0.00
2017,05,16,07,08,0.00
2017,05,16,07,09,0.00
2017,05,16,07,10,0.00
2017,05,16,07,11,0.00
2017,05,16,07,12,0.10
2017,05,16,07,13,0.00
2017,05,16,07,14,0.00
2017,05,16,07,15,0.00
2017,05,16,07,16,3.20
2017,05,16,07,17,2.90
2017,05,16,07,18,0.90
2017,05,16,07,19,0.00
2017,05,16,07,20,0.00
2017,05,16,07,21,0.00
2017,05,16,07,22,0.10
2017,05,16,07,23,2.40
2017,05,16,07,24,0.00
2017,05,16,07,25,0.00
2017,05,16,07,26,0.00
2017,05,16,07,27,0.00
2017,05,16,07,28,0.00
2017,05,16,07,29,0.00
2017,05,16,07,30,0.00
2017,05,16,07,31,0.00
2017,05,16,07,32,0.00
2017,05,16,07,33,0.20
2017,05,16,07,34,0.00
2017,05,16,07,35,0.00
2017,05,16,07,36,0.00
2017,05,16,07,37,0.00
2017,05,16,07,38,0.00
2017,05,16,07,39,0.00
2017,05,16,07,40,0.00
2017,05,16,07,41,0.00
2017,05,16,07,42,0.00
2017,05,16,07,43,0.60
2017,05,16,07,44,0.00
2017,05,16,07,45,0.10
2017,05,16,07,46,1.90
2017,05,16,07,47,0.40
2017,05,16,07,48,0.00
2017,05,16,07,49,0.00
2017,05,16,07,50,0.80
2017,05,16,07,51,0.00
2017,05,16,07,52,0.00
2017,05,16,07,53,1.30
2017,05,16,07,54,1.30
2017,05,16,07,55,2.40
2017,05,16,07,56,1.80
2017,05,16,07,57,0.40
2017,05,16,07,58,1.40
2017,05,16,07,59,0.10
2017,05,16,08,00,0.60
2017,05,16,08,01,2.90
2017,05,16,08,02,0.60
2017,05,16,08,03,1.70
2017,05,16,08,04,0.00
2017,05,16,08,05,0.00
2017,05,16,08,06,0.00
2017,05,16,08,07,0.00
2017,05,16,08,08,2.40
2017,05,16,08,09,1.40
2017,05,16,08,10,2.90
2017,05,16,08,11,1.20
2017,05,16,08,12,1.00
2017,05,16,08,13,1.30
2017,05,16,08,14,2.00
2017,05,16,08,15,0.50
2017,05,16,08,16,1.70
2017,05,16,08,17,1.20
2017,05,16,08,18,2.80
2017,05,16,08,19,3.30
2017,05,16,08,20,0.90
2017,05,16,08,21,1.30
2017,05,16,08,22,3.30
2017,05,16,08,23,2.40
2017,05,16,08,24,1.10
2017,05,16,08,25,0.90
2017,05,16,08,26,1.50
2017,05,16,08,27,0.20
2017,05,16,08,28,1.00
2017,05,16,08,29,1.60
2017,05,16,08,30,2.60
2017,05,16,08,31,1.60
2017,05,16,08,32,0.80
2017,05,16,08,33,1.90
2017,05,16,08,34,1.30
2017,05,16,08,35,0.00
2017,05,16,08,36,1.10
2017,05,16,08,37,1.60
2017,05,16,08,38,0.70
2017,05,16,08,39,0.40
2017,05,16,08,40,0.00
2017,05,16,08,41,1.80
2017,05,16,08,42,1.10
2017,05,16,08,43,2.00
2017,05,16,08,44,2.00
2017,05,16,08,45,1.70
2017,05,16,08,46,0.80
2017,05,16,08,47,1.30
2017,05,16,08,48,0.20
2017,05,16,08,49,2.70
2017,05,16,08,50,2.10
2017,05,16,08,51,2.20
2017,05,16,08,52,1.00
2017,05,16,08,53,1.80
2017,05,16,08,54,3.60
2017,05,16,08,55,3.40
2017,05,16,08,56,3.00
2017,05,16,08,57,1.60
2017,05,16,08,58,2.50
2017,05,16,08,59,1.80
2017,05,16,09,00,1.20
2017,05,16,09,01,0.10
2017,05,16,09,02,0.70
2017,05,16,09,03,0.00
2017,05,16,09,04,1.40
2017,05,16,09,05,0.70
2017,05,16,09,06,0.40
2017,05,16,09,07,0.70
2017,05,16,09,08,0.20
2017,05,16,09,09,0.90
2017,05,16,09,10,0.00
2017,05,16,09,11,0.00
2017,05,16,09,12,0.00
2017,05,16,09,13,0.00
2017,05,16,09,14,0.00
2017,05,16,09,15,0.00
2017,05,16,09,16,0.00
2017,05,16,09,17,0.00
2017,05,16,09,18,0.10
2017,05,16,09,19,2.80
2017,05,16,09,20,0.00
2017,05,16,09,21,0.00
2017,05,16,09,22,0.10
2017,05,16,09,23,0.00
2017,05,16,09,24,0.00
2017,05,16,09,25,0.30
2017,05,16,09,26,0.00
2017,05,16,09,27,0.00
2017,05,16,09,28,0.00
2017,05,16,09,29,1.70
2017,05,16,09,30,0.60
2017,05,16,09,31,0.80
2017,05,16,09,32,3.50
2017,05,16,09,33,1.00
2017,05,16,09,34,0.90
2017,05,16,09,35,1.90
2017,05,16,09,36,0.00
2017,05,16,09,37,0.70
2017,05,16,09,38,0.90
2017,05,16,09,39,0.00
2017,05,16,09,40,0.80
2017,05,16,09,41,2.50
2017,05,16,09,42,5.20
2017,05,16,09,43,1.40
2017,05,16,09,44,0.50
2017,05,16,09,45,4.60
2017,05,16,09,46,6.40
2017,05,16,09,47,4.10
2017,05,16,09,48,0.70
2017,05,16,09,49,0.40
2017,05,16,09,50,3.10
2017,05,16,09,51,3.50
2017,05,16,09,52,2.40
2017,05,16,09,53,3.20
2017,05,16,09,54,1.50
2017,05,16,09,55,2.80
2017,05,16,09,56,0.50
2017,05,16,09,57,0.40
2017,05,16,09,58,2.00
2017,05,16,09,59,5.40
2017,05,16,10,00,5.20
2017,05,16,10,01,4.40
2017,05,16,10,02,5.50
2017,05,16,10,03,4.50
2017,05,16,10,04,2.70
2017,05,16,10,05,3.50
2017,05,16,10,06,1.00
2017,05,16,10,07,0.00
2017,05,16,10,08,3.90
2017,05,16,10,09,6.00
2017,05,16,10,10,5.90
2017,05,16,10,11,4.40
2017,05,16,10,12,1.10
2017,05,16,10,13,0.20
2017,05,16,10,14,2.00
2017,05,16,10,15,1.20
2017,05,16,10,16,3.20
2017,05,16,10,17,2.10
2017,05,16,10,18,1.80
2017,05,16,10,19,2.30
2017,05,16,10,20,0.90
2017,05,16,10,21,0.00
2017,05,16,10,22,1.70
2017,05,16,10,23,1.40
2017,05,16,10,24,5.00
2017,05,16,10,25,4.00
2017,05,16,10,26,6.70
2017,05,16,10,27,3.00
2017,05,16,10,28,0.10
2017,05,16,10,29,0.00
2017,05,16,10,30,2.00
2017,05,16,10,31,4.50
2017,05,16,10,32,3.40
2017,05,16,10,33,3.90
2017,05,16,10,34,3.60
2017,05,16,10,35,1.10
2017,05,16,10,36,0.50
2017,05,16,10,37,2.60
2017,05,16,10,38,6.90
2017,05,16,10,39,10.70
2017,05,16,10,40,1.70
2017,05,16,10,41,0.60
2017,05,16,10,42,0.10
2017,05,16,10,43,1.20
2017,05,16,10,44,5.20
2017,05,16,10,45,0.20
2017,05,16,10,46,1.00
2017,05,16,10,47,0.00
2017,05,16,10,48,0.80
2017,05,16,10,49,4.30
2017,05,16,10,50,2.70
2017,05,16,10,51,3.00
2017,05,16,10,52,2.20
2017,05,16,10,53,1.60
2017,05,16,10,54,1.40
2017,05,16,10,55,0.40
2017,05,16,10,56,0.70
2017,05,16,10,57,2.70
2017,05,16,10,58,3.70
2017,05,16,10,59,3.70
2017,05,16,11,00,3.90
2017,05,16,11,01,4.40
2017,05,16,11,02,9.00
2017,05,16,11,03,4.50
2017,05,16,11,04,4.10
2017,05,16,11,05,5.70
2017,05,16,11,06,2.10
2017,05,16,11,07,6.80
2017,05,16,11,08,6.10
2017,05,16,11,09,3.40
2017,05,16,11,10,1.30
2017,05,16,11,11,3.60
2017,05,16,11,12,6.00
2017,05,16,11,13,2.90
2017,05,16,11,14,1.00
2017,05,16,11,15,1.50
2017,05,16,11,16,0.20
2017,05,16,11,17,0.80
2017,05,16,11,18,1.90
2017,05,16,11,19,4.10
2017,05,16,11,20,1.70
2017,05,16,11,21,7.50
2017,05,16,11,22,2.90
2017,05,16,11,23,0.80
2017,05,16,11,24,1.70
2017,05,16,11,25,8.40
2017,05,16,11,26,9.40
2017,05,16,11,27,3.90
2017,05,16,11,28,7.00
2017,05,16,11,29,8.40
2017,05,16,11,30,7.20
2017,05,16,11,31,4.90
2017,05,16,11,32,3.00
2017,05,16,11,33,3.20
2017,05,16,11,34,13.10
2017,05,16,11,35,5.20
2017,05,16,11,36,6.00
2017,05,16,11,37,6.90
2017,05,16,11,38,6.40
2017,05,16,11,39,6.10
2017,05,16,11,40,7.10
2017,05,16,11,41,4.80
2017,05,16,11,42,8.40
2017,05,16,11,43,6.00
2017,05,16,11,44,7.70
2017,05,16,11,45,4.00
2017,05,16,11,46,6.90
2017,05,16,11,47,3.10
2017,05,16,11,48,2.10
2017,05,16,11,49,1.80
2017,05,16,11,50,3.20
2017,05,16,11,51,2.70
2017,05,16,11,52,3.50
2017,05,16,11,53,8.90
2017,05,16,11,54,3.70
2017,05,16,11,55,9.50
2017,05,16,11,56,8.00
2017,05,16,11,57,10.10
2017,05,16,11,58,8.80
2017,05,16,11,59,6.80
2017,05,16,12,00,3.60
2017,05,16,12,01,6.70
2017,05,16,12,02,3.60
2017,05,16,12,03,3.20
2017,05,16,12,04,3.10
2017,05,16,12,05,3.00
2017,05,16,12,06,4.70
2017,05,16,12,07,3.90
2017,05,16,12,08,7.60
2017,05,16,12,09,4.20
2017,05,16,12,10,1.70
2017,05,16,12,11,5.80
2017,05,16,12,12,4.50
2017,05,16,12,13,6.00
2017,05,16,12,14,3.90
2017,05,16,12,15,10.60
2017,05,16,12,16,6.20
2017,05,16,12,17,3.50
2017,05,16,12,18,2.10
2017,05,16,12,19,2.10
2017,05,16,12,20,5.40
2017,05,16,12,21,8.00
2017,05,16,12,22,9.50
2017,05,16,12,23,5.70
2017,05,16,12,24,5.40
2017,05,16,12,25,3.90
2017,05,16,12,26,5.40
2017,05,16,12,27,2.90
2017,05,16,12,28,4.00
2017,05,16,12,29,3.30
2017,05,16,12,30,3.20
2017,05,16,12,31,3.00
2017,05,16,12,32,2.90
2017,05,16,12,33,3.40
2017,05,16,12,34,4.90
2017,05,16,12,35,4.60
2017,05,16,12,36,4.60
2017,05,16,12,37,5.60
2017,05,16,12,38,4.10
2017,05,16,12,39,5.60
2017,05,16,12,40,2.70
2017,05,16,12,41,3.60
2017,05,16,12,42,5.00
2017,05,16,12,43,6.50
2017,05,16,12,44,8.80
2017,05,16,12,45,6.30
2017,05,16,12,46,5.40
2017,05,16,12,47,8.20
2017,05,16,12,48,6.00
2017,05,16,12,49,8.80
2017,05,16,12,50,4.00
2017,05,16,12,51,3.60
2017,05,16,12,52,6.30
2017,05,16,12,53,3.60
2017,05,16,12,54,1.50
2017,05,16,12,55,0.80
2017,05,16,12,56,3.70
2017,05,16,12,57,4.90
2017,05,16,12,58,4.00
2017,05,16,12,59,6.50
2017,05,16,13,00,4.00
2017,05,16,13,01,8.80
2017,05,16,13,02,6.40
2017,05,16,13,03,7.50
2017,05,16,13,04,6.40
2017,05,16,13,05,6.40
2017,05,16,13,06,6.70
2017,05,16,13,07,6.10
2017,05,16,13,08,4.50
2017,05,16,13,09,6.40
2017,05,16,13,10,7.80
2017,05,16,13,11,5.50
2017,05,16,13,12,8.40
2017,05,16,13,13,7.20
2017,05,16,13,14,12.30
2017,05,16,13,15,7.90
2017,05,16,13,16,7.60
2017,05,16,13,17,8.40
2017,05,16,13,18,5.80
2017,05,16,13,19,4.70
2017,05,16,13,20,5.20
2017,05,16,13,21,5.40
2017,05,16,13,22,4.90
2017,05,16,13,23,6.40
2017,05,16,13,24,8.90
2017,05,16,13,25,4.40
2017,05,16,13,26,7.00
2017,05,16,13,27,6.50
2017,05,16,13,28,7.00
2017,05,16,13,29,5.90
2017,05,16,13,30,3.40
2017,05,16,13,31,5.40
2017,05,16,13,32,5.80
2017,05,16,13,33,5.70
2017,05,16,13,34,5.40
2017,05,16,13,35,8.30
2017,05,16,13,36,7.20
2017,05,16,13,37,9.50
2017,05,16,13,38,7.80
2017,05,16,13,39,5.70
2017,05,16,13,40,10.50
2017,05,16,13,41,5.70
2017,05,16,13,42,6.00
2017,05,16,13,43,4.90
2017,05,16,13,44,4.40
2017,05,16,13,45,7.00
2017,05,16,13,46,5.20
2017,05,16,13,47,9.10
2017,05,16,13,48,9.70
2017,05,16,13,49,6.60
2017,05,16,13,50,5.00
2017,05,16,13,51,3.80
2017,05,16,13,52,6.60
2017,05,16,13,53,7.30
2017,05,16,13,54,6.00
2017,05,16,13,55,8.70
2017,05,16,13,56,10.30
2017,05,16,13,57,7.90
2017,05,16,13,58,6.70
2017,05,16,13,59,8.10
2017,05,16,14,00,6.90
2017,05,16,14,01,5.70
2017,05,16,14,02,5.70
2017,05,16,14,03,8.70
2017,05,16,14,04,8.80
2017,05,16,14,05,8.10
2017,05,16,14,06,4.90
2017,05,16,14,07,5.50
2017,05,16,14,08,5.70
2017,05,16,14,09,4.90
2017,05,16,14,10,7.60
2017,05,16,14,11,11.90
2017,05,16,14,12,6.50
2017,05,16,14,13,7.50
2017,05,16,14,14,8.10
2017,05,16,14,15,8.60
2017,05,16,14,16,4.10
2017,05,16,14,17,5.00
2017,05,16,14,18,5.90
2017,05,16,14,19,5.50
2017,05,16,14,20,5.90
2017,05,16,14,21,7.00
2017,05,16,14,22,7.90
2017,05,16,14,23,3.90
2017,05,16,14,24,3.70
2017,05,16,14,25,5.60
2017,05,16,14,26,10.00
2017,05,16,14,27,9.10
2017,05,16,14,28,1.40
2017,05,16,14,29,4.50
2017,05,16,14,30,6.30
2017,05,16,14,31,1.00
2017,05,16,14,32,7.10
2017,05,16,14,33,2.50
2017,05,16,14,34,2.30
2017,05,16,14,35,8.40
2017,05,16,14,36,6.60
2017,05,16,14,37,11.30
2017,05,16,14,38,8.00
2017,05,16,14,39,6.40
2017,05,16,14,40,4.80
2017,05,16,14,41,6.00
2017,05,16,14,42,8.90
2017,05,16,14,43,6.30
2017,05,16,14,44,8.00
2017,05,16,14,45,5.70
2017,05,16,14,46,8.00
2017,05,16,14,47,3.80
2017,05,16,14,48,5.70
2017,05,16,14,49,4.30
2017,05,16,14,50,8.30
2017,05,16,14,51,9.20
2017,05,16,14,52,8.80
2017,05,16,14,53,3.00
2017,05,16,14,54,3.40
2017,05,16,14,55,10.20
2017,05,16,14,56,10.00
2017,05,16,14,57,4.80
2017,05,16,14,58,4.20
2017,05,16,14,59,11.60
2017,05,16,15,00,10.30
2017,05,16,15,01,11.00
2017,05,16,15,02,9.50
2017,05,16,15,03,5.80
2017,05,16,15,04,3.40
2017,05,16,15,05,5.70
2017,05,16,15,06,8.10
2017,05,16,15,07,5.00
2017,05,16,15,08,6.10
2017,05,16,15,09,11.00
2017,05,16,15,10,6.60
2017,05,16,15,11,2.70
2017,05,16,15,12,5.70
2017,05,16,15,13,6.10
2017,05,16,15,14,3.30
2017,05,16,15,15,4.60
2017,05,16,15,16,5.40
2017,05,16,15,17,5.80
2017,05,16,15,18,6.00
2017,05,16,15,19,7.00
2017,05,16,15,20,4.90
2017,05,16,15,21,11.00
2017,05,16,15,22,7.60
2017,05,16,15,23,5.50
2017,05,16,15,24,10.00
2017,05,16,15,25,6.60
2017,05,16,15,26,6.00
2017,05,16,15,27,8.80
2017,05,16,15,28,11.30
2017,05,16,15,29,7.30
2017,05,16,15,30,5.30
2017,05,16,15,31,8.80
2017,05,16,15,32,5.80
2017,05,16,15,33,1.40
2017,05,16,15,34,4.60
2017,05,16,15,35,7.20
2017,05,16,15,36,10.10
2017,05,16,15,37,6.90
2017,05,16,15,38,7.40
2017,05,16,15,39,8.00
2017,05,16,15,40,7.90
2017,05,16,15,41,10.30
2017,05,16,15,42,8.50
2017,05,16,15,43,6.10
2017,05,16,15,44,6.50
2017,05,16,15,45,7.10
2017,05,16,15,46,8.60
2017,05,16,15,47,7.50
2017,05,16,15,48,10.00
2017,05,16,15,49,9.30
2017,05,16,15,50,7.10
2017,05,16,15,51,10.00
2017,05,16,15,52,5.50
2017,05,16,15,53,7.60
2017,05,16,15,54,8.20
2017,05,16,15,55,9.90
2017,05,16,15,56,7.60
2017,05,16,15,57,7.60
2017,05,16,15,58,8.40
2017,05,16,15,59,8.90
2017,05,16,16,00,7.20
2017,05,16,16,01,5.60
2017,05,16,16,02,6.10
2017,05,16,16,03,4.20
2017,05,16,16,04,4.60
2017,05,16,16,05,7.50
2017,05,16,16,06,7.50
2017,05,16,16,07,5.60
2017,05,16,16,08,5.10
2017,05,16,16,09,5.00
2017,05,16,16,10,7.90
2017,05,16,16,11,8.20
2017,05,16,16,12,4.60
2017,05,16,16,13,4.70
2017,05,16,16,14,5.90
2017,05,16,16,15,8.70
2017,05,16,16,16,3.70
2017,05,16,16,17,3.20
2017,05,16,16,18,2.90
2017,05,16,16,19,2.40
2017,05,16,16,20,4.70
2017,05,16,16,21,6.10
2017,05,16,16,22,6.70
2017,05,16,16,23,5.70
2017,05,16,16,24,3.90
2017,05,16,16,25,2.10
2017,05,16,16,26,4.40
2017,05,16,16,27,5.40
2017,05,16,16,28,4.10
2017,05,16,16,29,9.80
2017,05,16,16,30,11.80
2017,05,16,16,31,10.10
2017,05,16,16,32,8.10
2017,05,16,16,33,10.00
2017,05,16,16,34,4.60
2017,05,16,16,35,3.70
2017,05,16,16,36,2.90
2017,05,16,16,37,6.20
2017,05,16,16,38,8.30
2017,05,16,16,39,7.70
2017,05,16,16,40,5.90
2017,05,16,16,41,5.20
2017,05,16,16,42,7.20
2017,05,16,16,43,10.20
2017,05,16,16,44,5.00
2017,05,16,16,45,6.70
2017,05,16,16,46,5.60
2017,05,16,16,47,3.80
2017,05,16,16,48,1.10
2017,05,16,16,49,4.90
2017,05,16,16,50,3.30
2017,05,16,16,51,4.70
2017,05,16,16,52,5.10
2017,05,16,16,53,6.90
2017,05,16,16,54,6.70
2017,05,16,16,55,5.90
2017,05,16,16,56,4.60
2017,05,16,16,57,6.90
2017,05,16,16,58,9.80
2017,05,16,16,59,7.40
2017,05,16,17,00,1.60
2017,05,16,17,01,3.50
2017,05,16,17,02,11.20
2017,05,16,17,03,7.20
2017,05,16,17,04,6.00
2017,05,16,17,05,6.80
2017,05,16,17,06,6.70
2017,05,16,17,07,7.70
2017,05,16,17,08,5.70
2017,05,16,17,09,4.90
2017,05,16,17,10,3.40
2017,05,16,17,11,0.20
2017,05,16,17,12,0.80
2017,05,16,17,13,7.60
2017,05,16,17,14,5.70
2017,05,16,17,15,7.20
2017,05,16,17,16,7.70
2017,05,16,17,17,2.70
2017,05,16,17,18,4.20
2017,05,16,17,19,4.80
2017,05,16,17,20,4.90
2017,05,16,17,21,7.20
2017,05,16,17,22,4.20
2017,05,16,17,23,5.30
2017,05,16,17,24,2.60
2017,05,16,17,25,2.10
2017,05,16,17,26,2.10
2017,05,16,17,27,3.50
2017,05,16,17,28,4.60
2017,05,16,17,29,6.90
2017,05,16,17,30,11.30
2017,05,16,17,31,10.60
2017,05,16,17,32,7.00
2017,05,16,17,33,3.90
2017,05,16,17,34,3.50
2017,05,16,17,35,2.90
2017,05,16,17,36,3.20
2017,05,16,17,37,9.80
2017,05,16,17,38,4.30
2017,05,16,17,39,3.90
2017,05,16,17,40,11.50
2017,05,16,17,41,10.40
2017,05,16,17,42,7.90
2017,05,16,17,43,11.30
2017,05,16,17,44,7.60
2017,05,16,17,45,7.60
2017,05,16,17,46,11.10
2017,05,16,17,47,8.10
2017,05,16,17,48,10.70
2017,05,16,17,49,8.10
2017,05,16,17,50,8.90
2017,05,16,17,51,7.90
2017,05,16,17,52,9.20
2017,05,16,17,53,9.70
2017,05,16,17,54,7.80
2017,05,16,17,55,7.80
2017,05,16,17,56,6.90
2017,05,16,17,57,8.50
2017,05,16,17,58,10.00
2017,05,16,17,59,7.70
2017,05,16,18,00,2.00
2017,05,16,18,01,4.10
2017,05,16,18,02,10.40
2017,05,16,18,03,8.30
2017,05,16,18,04,7.70